Meteo Giornale » Osservazioni meteo Croazia » Rijeka-Omisalj

ore: 05:00 - Osservazioni Meteo Rijeka-Omisalj
Lat. 45° 13' N Lon. 14° 35' E Alt. 85 metri s.l.m.

sereno

25 °C

Sereno

Temp. 24 Ore

21 °C

32 °C

Est/Nord-Est

20.3 Km/h

Dew point 11 °C

Umidità 41 %

Visibilità  10 Km

Il sole sorge alle ore 06:24

Il sole tramonta alle ore 19:38

Data e Ora Cielo e Fenomeni T °C DP °C Um. % Pres. hPa Vis. km Vento km/h
Oggi h: 05:00 sereno Sereno 25 11 41 1017 10 E/NE 20.3
Oggi h: 04:30 sereno Sereno 25 11 41 1017 10 NE 11.1
Oggi h: 04:00 sereno Sereno 25 12 44 1017 10 E/NE 9.3
Oggi h: 03:30 sereno Sereno 24 12 47 1017 10 E 9.3
Oggi h: 03:00 sereno Sereno 24 12 47 1017 10 E 11.1
Oggi h: 02:30 sereno Sereno 25 12 44 1018 10 E/NE 13
Oggi h: 02:00 sereno Sereno 25 12 44 1018 10 E/NE 13
Oggi h: 01:30 sereno Sereno 24 12 47 1018 10 E 11.1
Oggi h: 01:00 sereno Sereno 25 12 44 1018 10 E/NE 11.1
Oggi h: 00:30 sereno Sereno 21 13 60 1018 10 N 3.7
Oggi h: 00:00 sereno Sereno 22 13 56 1018 10 N 1.8
Ieri h: 23:30 sereno Sereno 23 12 49 1018 10 N 3.7
Ieri h: 23:00 sereno Sereno 22 12 53 1018 10 N 3.7
Ieri h: 22:30 sereno Sereno 23 13 53 1017 10 N 1.8
Ieri h: 22:00 sereno Sereno 24 13 50 1017 10 E 9.3
Ieri h: 21:30 sereno Sereno 24 13 50 1017 10 E/NE 9.3
Ieri h: 21:00 sereno Sereno 25 13 47 1017 10 E 7.4
Ieri h: 20:30 sereno Sereno 25 13 47 1017 10 E 11.1
Ieri h: 20:00 sereno Sereno 27 13 42 1017 10 E/SE 9.3
Ieri h: 19:30 sereno Sereno 29 13 37 1016 10 N 1.8
Ieri h: 19:00 sereno Sereno 30 12 33 1016 10 N 5.5
Ieri h: 18:30 sereno Sereno 30 11 30 1017 10 N 5.5
Ieri h: 18:00 sereno Sereno 31 11 29 1017 10 NO 7.4
Ieri h: 17:30 sereno Sereno 31 11 29 1017 10 O/NO 9.3
Ieri h: 17:00 sereno Sereno 31 11 29 1017 10 N/NO 11.1
Ieri h: 16:30 sereno Sereno 31 12 31 1017 10 N/NO 14.8
Ieri h: 16:00 sereno Sereno 31 11 29 1017 10 O/NO 14.8
Ieri h: 15:30 sereno Sereno 32 10 25 1017 10 O/NO 13
Ieri h: 15:00 sereno Sereno 31 10 27 1017 10 N 13
Ieri h: 14:30 sereno Sereno 31 10 27 1018 10 N 3.7
Ieri h: 14:00 sereno Sereno 31 9 25 1018 10 S/SE 13
Ieri h: 13:30 sereno Sereno 31 9 25 1018 10 N 9.3
Ieri h: 13:00 sereno Sereno 31 10 27 1018 10 E 18.5
Ieri h: 12:30 poco_nuvoloso Poco Nuvoloso 30 9 27 1018 10 N 5.5
Ieri h: 12:00 poco_nuvoloso Poco Nuvoloso 30 7 23 1019 10 E/SE 13
Ieri h: 11:30 poco_nuvoloso Poco Nuvoloso 31 8 23 1018 10 N 13
Ieri h: 11:00 poco_nuvoloso Poco Nuvoloso 30 10 28 1018 10 E/NE 14.8
Ieri h: 10:30 poco_nuvoloso Poco Nuvoloso 31 9 25 1018 10 N 11.1
Ieri h: 10:00 sereno Sereno 27 12 39 1018 10 O 13
Ieri h: 09:30 sereno Sereno 27 14 44 1018 10 O 9.3
Ieri h: 09:00 sereno Sereno 27 13 42 1018 10 O 9.3
Ieri h: 08:30 sereno Sereno 26 12 41 1018 10 N 1.8
Ieri h: 08:00 sereno Sereno 25 12 44 1018 10 SO 9.3
Ieri h: 07:30 sereno Sereno 25 12 44 1018 10 SO 11.1
Ieri h: 07:00 sereno Sereno 24 13 50 1017 10 SO 11.1
Ieri h: 06:30 sereno Sereno 25 12 44 1017 10 N 7.4
Ieri h: 06:00 sereno Sereno 25 13 47 1017 10 S/SE 7.4